Wetterdaten: Woche 28.11.16 - 04.12.16 (KW48)
Datum Zeit Temperatur Luftfeuchte Luftdruck Niederschlag Windrichtung Sonnenschein Solar Wind
28.11.2016 00:00 2,7 C 91 % 1017,6 hPa 0,0 l/m O-NO 0,00 h 0 W/m 12,4 km/h (3 Bft)
28.11.2016 01:00 2,3 C 92 % 1017,7 hPa 0,0 l/m NO 0,00 h 0 W/m 16,6 km/h (3 Bft)
28.11.2016 02:00 2,0 C 92 % 1018,4 hPa 0,0 l/m O-NO 0,00 h 0 W/m 18,6 km/h (3 Bft)
28.11.2016 03:00 1,5 C 91 % 1018,8 hPa 0,0 l/m NO 0,00 h 0 W/m 20,8 km/h (4 Bft)
28.11.2016 04:00 0,9 C 91 % 1019,4 hPa 0,0 l/m O-NO 0,00 h 0 W/m 20,9 km/h (4 Bft)
28.11.2016 05:00 0,6 C 91 % 1019,9 hPa 0,0 l/m O-NO 0,00 h 0 W/m 16,8 km/h (3 Bft)
28.11.2016 06:00 -0,2 C 90 % 1020,4 hPa 0,0 l/m O-NO 0,00 h 0 W/m 15,3 km/h (3 Bft)
28.11.2016 07:00 -0,9 C 92 % 1020,9 hPa 0,0 l/m O-NO 0,00 h 6 W/m 15,0 km/h (3 Bft)
28.11.2016 08:00 -1,1 C 93 % 1021,6 hPa 0,0 l/m O 0,08 h 29 W/m 19,2 km/h (3 Bft)
28.11.2016 09:00 -0,8 C 92 % 1022,1 hPa 0,0 l/m O 0,25 h 100 W/m 20,6 km/h (4 Bft)
28.11.2016 10:00 -0,2 C 87 % 1022,7 hPa 0,0 l/m O-NO 0,92 h 250 W/m 20,9 km/h (4 Bft)
28.11.2016 11:00 0,9 C 76 % 1022,6 hPa 0,0 l/m O 1,00 h 318 W/m 24,0 km/h (4 Bft)
28.11.2016 12:00 1,6 C 69 % 1022,6 hPa 0,0 l/m O-NO 1,00 h 316 W/m 28,2 km/h (4 Bft)
28.11.2016 13:00 1,8 C 70 % 1022,8 hPa 0,0 l/m O-NO 1,00 h 264 W/m 26,0 km/h (4 Bft)
28.11.2016 14:00 1,4 C 69 % 1023,0 hPa 0,0 l/m O 0,75 h 153 W/m 28,9 km/h (5 Bft)
28.11.2016 15:00 0,9 C 70 % 1023,7 hPa 0,0 l/m O-NO 0,00 h 53 W/m 25,8 km/h (4 Bft)
28.11.2016 16:00 -0,0 C 72 % 1024,5 hPa 0,0 l/m O-NO 0,08 h 12 W/m 27,4 km/h (4 Bft)
28.11.2016 17:00 -0,5 C 73 % 1025,2 hPa 0,0 l/m O-NO 0,00 h 0 W/m 23,4 km/h (4 Bft)
28.11.2016 18:00 -1,0 C 76 % 1025,9 hPa 0,0 l/m O-NO 0,00 h 0 W/m 19,4 km/h (3 Bft)
28.11.2016 19:00 -1,5 C 78 % 1026,4 hPa 0,0 l/m O-NO 0,00 h 0 W/m 19,0 km/h (3 Bft)
28.11.2016 20:00 -2,0 C 79 % 1026,9 hPa 0,0 l/m O-NO 0,00 h 0 W/m 19,7 km/h (3 Bft)
28.11.2016 21:00 -2,3 C 79 % 1027,2 hPa 0,0 l/m O-NO 0,00 h 0 W/m 17,4 km/h (3 Bft)
28.11.2016 22:00 -2,7 C 79 % 1027,6 hPa 0,0 l/m O-NO 0,00 h 0 W/m 20,6 km/h (4 Bft)
28.11.2016 23:00 -2,9 C 79 % 1027,9 hPa 0,0 l/m O-NO 0,00 h 0 W/m 23,2 km/h (4 Bft)
29.11.2016 00:00 -3,2 C 80 % 1028,1 hPa 0,0 l/m O-NO 0,00 h 0 W/m 18,5 km/h (3 Bft)
29.11.2016 01:00 -3,4 C 81 % 1028,1 hPa 0,0 l/m O-NO 0,00 h 0 W/m 16,4 km/h (3 Bft)
29.11.2016 02:00 -3,5 C 81 % 1028,1 hPa 0,0 l/m O-NO 0,00 h 0 W/m 18,1 km/h (3 Bft)
29.11.2016 03:00 -3,8 C 82 % 1028,2 hPa 0,0 l/m O-NO 0,00 h 0 W/m 19,3 km/h (3 Bft)
29.11.2016 04:00 -4,1 C 83 % 1028,5 hPa 0,0 l/m NO 0,00 h 0 W/m 17,8 km/h (3 Bft)
29.11.2016 05:00 -4,0 C 83 % 1028,7 hPa 0,0 l/m O-NO 0,00 h 0 W/m 19,4 km/h (3 Bft)
29.11.2016 06:00 -4,1 C 81 % 1029,3 hPa 0,0 l/m O-NO 0,00 h 0 W/m 19,3 km/h (3 Bft)
29.11.2016 07:00 -4,5 C 83 % 1030,0 hPa 0,0 l/m O-NO 0,00 h 7 W/m 16,4 km/h (3 Bft)
29.11.2016 08:00 -4,7 C 86 % 1030,6 hPa 0,0 l/m NO 0,42 h 47 W/m 14,0 km/h (3 Bft)
29.11.2016 09:00 -3,8 C 85 % 1031,1 hPa 0,0 l/m NO 1,00 h 166 W/m 15,2 km/h (3 Bft)
29.11.2016 10:00 -2,4 C 78 % 1031,4 hPa 0,0 l/m O-NO 0,92 h 254 W/m 18,6 km/h (3 Bft)
29.11.2016 11:00 -0,5 C 68 % 1031,4 hPa 0,0 l/m NO 1,00 h 312 W/m 18,2 km/h (3 Bft)
29.11.2016 12:00 0,6 C 62 % 1031,3 hPa 0,0 l/m O-NO 1,00 h 313 W/m 18,2 km/h (3 Bft)
29.11.2016 13:00 1,1 C 61 % 1031,1 hPa 0,0 l/m O 1,00 h 260 W/m 18,2 km/h (3 Bft)
29.11.2016 14:00 1,3 C 61 % 1031,2 hPa 0,0 l/m O 0,83 h 152 W/m 16,5 km/h (3 Bft)
29.11.2016 15:00 1,0 C 63 % 1031,5 hPa 0,0 l/m O-NO 0,00 h 42 W/m 12,6 km/h (3 Bft)
29.11.2016 16:00 0,0 C 67 % 1031,7 hPa 0,0 l/m O 0,00 h 10 W/m 10,2 km/h (2 Bft)
29.11.2016 17:00 -0,9 C 72 % 1032,3 hPa 0,0 l/m O-NO 0,00 h 0 W/m 5,0 km/h (1 Bft)
29.11.2016 18:00 -1,8 C 74 % 1032,6 hPa 0,0 l/m N 0,00 h 0 W/m 0,7 km/h (0 Bft)
29.11.2016 19:00 -2,8 C 78 % 1032,9 hPa 0,0 l/m N 0,00 h 0 W/m 0,9 km/h (0 Bft)
29.11.2016 20:00 -3,3 C 81 % 1032,9 hPa 0,0 l/m N 0,00 h 0 W/m 2,0 km/h (1 Bft)
29.11.2016 21:00 -3,7 C 83 % 1033,1 hPa 0,0 l/m N 0,00 h 0 W/m 0,5 km/h (0 Bft)
29.11.2016 22:00 -4,4 C 84 % 1033,3 hPa 0,0 l/m N 0,00 h 0 W/m 0,4 km/h (0 Bft)
29.11.2016 23:00 -5,0 C 86 % 1033,4 hPa 0,0 l/m O-NO 0,00 h 0 W/m 0,8 km/h (0 Bft)
30.11.2016 00:00 -5,3 C 88 % 1033,4 hPa 0,0 l/m N 0,00 h 0 W/m 0,4 km/h (0 Bft)
30.11.2016 01:00 -5,7 C 89 % 1033,3 hPa 0,0 l/m N 0,00 h 0 W/m 0,0 km/h (0 Bft)
30.11.2016 02:00 -6,2 C 90 % 1033,7 hPa 0,0 l/m N 0,00 h 0 W/m 0,0 km/h (0 Bft)
30.11.2016 03:00 -6,7 C 90 % 1033,6 hPa 0,0 l/m N 0,00 h 0 W/m 0,0 km/h (0 Bft)
30.11.2016 04:00 -7,0 C 91 % 1033,7 hPa 0,0 l/m N 0,00 h 0 W/m 0,0 km/h (0 Bft)
30.11.2016 05:00 -7,3 C 91 % 1034,2 hPa 0,0 l/m O-NO 0,00 h 0 W/m 0,4 km/h (0 Bft)
30.11.2016 06:00 -7,5 C 95 % 1034,0 hPa 0,0 l/m N 0,00 h 0 W/m 0,0 km/h (0 Bft)
30.11.2016 07:00 -7,6 C 92 % 1034,8 hPa 0,0 l/m N 0,00 h 6 W/m 0,0 km/h (0 Bft)
30.11.2016 08:00 -7,4 C 93 % 1035,2 hPa 0,0 l/m O 0,00 h 35 W/m 1,1 km/h (0 Bft)
30.11.2016 09:00 -6,2 C 94 % 1035,2 hPa 0,0 l/m S-SW 0,92 h 147 W/m 2,7 km/h (1 Bft)
30.11.2016 10:00 -2,7 C 95 % 1035,4 hPa 0,0 l/m S 0,92 h 226 W/m 12,5 km/h (3 Bft)
30.11.2016 11:00 -1,0 C 93 % 1034,9 hPa 0,0 l/m S 1,00 h 289 W/m 13,8 km/h (3 Bft)
30.11.2016 12:00 1,0 C 91 % 1034,2 hPa 0,0 l/m S 1,00 h 301 W/m 8,2 km/h (2 Bft)
30.11.2016 13:00 2,1 C 87 % 1033,7 hPa 0,0 l/m S-SW 1,00 h 237 W/m 11,9 km/h (2 Bft)
30.11.2016 14:00 3,1 C 84 % 1032,8 hPa 0,0 l/m S-SW 0,83 h 157 W/m 11,1 km/h (2 Bft)
30.11.2016 15:00 3,0 C 84 % 1033,0 hPa 0,0 l/m S-SW 0,00 h 52 W/m 4,7 km/h (1 Bft)
30.11.2016 16:00 1,6 C 87 % 1032,9 hPa 0,0 l/m SW 0,00 h 10 W/m 9,1 km/h (2 Bft)
30.11.2016 17:00 0,5 C 88 % 1032,6 hPa 0,0 l/m SW 0,00 h 0 W/m 6,3 km/h (2 Bft)
30.11.2016 18:00 -0,3 C 90 % 1033,0 hPa 0,0 l/m N 0,00 h 0 W/m 0,9 km/h (0 Bft)
30.11.2016 19:00 -1,1 C 91 % 1033,3 hPa 0,0 l/m SW 0,00 h 0 W/m 1,6 km/h (1 Bft)
30.11.2016 20:00 -1,5 C 92 % 1033,3 hPa 0,0 l/m SW 0,00 h 0 W/m 0,7 km/h (0 Bft)
30.11.2016 21:00 -1,4 C 93 % 1032,9 hPa 0,0 l/m SW 0,00 h 0 W/m 4,3 km/h (1 Bft)
30.11.2016 22:00 -0,5 C 95 % 1032,4 hPa 0,0 l/m S-SW 0,00 h 0 W/m 4,7 km/h (1 Bft)
30.11.2016 23:00 -0,1 C 95 % 1032,5 hPa 0,0 l/m S-SW 0,00 h 0 W/m 3,7 km/h (1 Bft)
01.12.2016 00:00 -0,4 C 95 % 1032,1 hPa 0,0 l/m N 0,00 h 0 W/m 0,0 km/h (0 Bft)
01.12.2016 01:00 -0,8 C 95 % 1032,0 hPa 0,0 l/m N 0,00 h 0 W/m 0,4 km/h (0 Bft)
01.12.2016 02:00 -1,2 C 95 % 1032,1 hPa 0,0 l/m N 0,00 h 0 W/m 0,5 km/h (0 Bft)
01.12.2016 03:00 -1,2 C 96 % 1031,7 hPa 0,0 l/m S-SW 0,00 h 0 W/m 6,7 km/h (2 Bft)
01.12.2016 04:00 -0,9 C 96 % 1031,4 hPa 0,0 l/m S-SW 0,00 h 0 W/m 3,9 km/h (1 Bft)
01.12.2016 05:00 -1,5 C 96 % 1031,3 hPa 0,0 l/m N 0,00 h 0 W/m 0,5 km/h (0 Bft)
01.12.2016 06:00 -1,2 C 97 % 1030,6 hPa 0,0 l/m S-SW 0,00 h 0 W/m 4,7 km/h (1 Bft)
01.12.2016 07:00 -0,8 C 97 % 1030,4 hPa 0,0 l/m S-SW 0,00 h 0 W/m 3,5 km/h (1 Bft)
01.12.2016 08:00 -0,5 C 97 % 1030,0 hPa 0,0 l/m SW 0,00 h 20 W/m 10,6 km/h (2 Bft)
01.12.2016 09:00 -0,1 C 97 % 1029,7 hPa 0,0 l/m S-SW 0,00 h 59 W/m 9,7 km/h (2 Bft)
01.12.2016 10:00 0,5 C 97 % 1029,4 hPa 0,0 l/m SW 0,00 h 99 W/m 9,7 km/h (2 Bft)
01.12.2016 11:00 1,3 C 97 % 1028,7 hPa 0,0 l/m S-SW 0,33 h 213 W/m 13,3 km/h (3 Bft)
01.12.2016 12:00 3,3 C 92 % 1027,7 hPa 0,0 l/m S-SW 1,00 h 311 W/m 12,8 km/h (3 Bft)
01.12.2016 13:00 4,3 C 87 % 1026,7 hPa 0,0 l/m S-SW 1,00 h 247 W/m 12,8 km/h (3 Bft)
01.12.2016 14:00 5,0 C 82 % 1025,9 hPa 0,0 l/m S-SW 0,92 h 156 W/m 11,3 km/h (2 Bft)
01.12.2016 15:00 4,7 C 81 % 1025,7 hPa 0,0 l/m S-SW 0,00 h 44 W/m 6,6 km/h (2 Bft)
01.12.2016 16:00 3,4 C 83 % 1025,7 hPa 0,2 l/m N 0,00 h 11 W/m 0,7 km/h (0 Bft)
01.12.2016 17:00 1,4 C 84 % 1025,5 hPa 0,0 l/m S-SW 0,00 h 0 W/m 0,0 km/h (0 Bft)
01.12.2016 18:00 0,5 C 90 % 1024,9 hPa 0,0 l/m S-SW 0,00 h 0 W/m 8,8 km/h (2 Bft)
01.12.2016 19:00 0,5 C 91 % 1024,3 hPa 0,0 l/m S 0,00 h 0 W/m 6,2 km/h (2 Bft)
01.12.2016 20:00 -0,1 C 91 % 1024,2 hPa 0,0 l/m S 0,00 h 0 W/m 3,5 km/h (1 Bft)
01.12.2016 21:00 -0,9 C 91 % 1024,2 hPa 0,0 l/m N 0,00 h 0 W/m 0,0 km/h (0 Bft)
01.12.2016 22:00 -1,7 C 92 % 1024,0 hPa 0,0 l/m N 0,00 h 0 W/m 0,0 km/h (0 Bft)
01.12.2016 23:00 -2,3 C 92 % 1024,0 hPa 0,0 l/m S 0,00 h 0 W/m 0,8 km/h (0 Bft)
02.12.2016 00:00 -2,7 C 93 % 1024,1 hPa 0,0 l/m N 0,00 h 0 W/m 0,1 km/h (0 Bft)
02.12.2016 01:00 -2,7 C 93 % 1023,8 hPa 0,0 l/m S-SW 0,00 h 0 W/m 1,2 km/h (1 Bft)
02.12.2016 02:00 -3,1 C 93 % 1023,5 hPa 0,0 l/m N 0,00 h 0 W/m 0,0 km/h (0 Bft)
02.12.2016 03:00 -3,7 C 93 % 1023,2 hPa 0,0 l/m N 0,00 h 0 W/m 0,0 km/h (0 Bft)
02.12.2016 04:00 -4,1 C 93 % 1023,0 hPa 0,0 l/m N 0,00 h 0 W/m 0,0 km/h (0 Bft)
02.12.2016 05:00 -4,5 C 94 % 1023,1 hPa 0,0 l/m N 0,00 h 0 W/m 0,0 km/h (0 Bft)
02.12.2016 06:00 -4,7 C 94 % 1023,2 hPa 0,0 l/m N 0,00 h 0 W/m 0,0 km/h (0 Bft)
02.12.2016 07:00 -3,9 C 95 % 1023,5 hPa 0,0 l/m N 0,00 h 0 W/m 0,0 km/h (0 Bft)
02.12.2016 08:00 -3,0 C 96 % 1023,9 hPa 0,0 l/m S-SW 0,00 h 23 W/m 0,5 km/h (0 Bft)
02.12.2016 09:00 -1,5 C 97 % 1023,8 hPa 0,0 l/m S-SW 0,00 h 74 W/m 6,8 km/h (2 Bft)
02.12.2016 10:00 -0,1 C 96 % 1023,8 hPa 0,0 l/m S-SW 0,00 h 131 W/m 7,2 km/h (2 Bft)
02.12.2016 11:00 0,7 C 95 % 1023,4 hPa 0,0 l/m S-SW 0,08 h 153 W/m 4,4 km/h (1 Bft)
02.12.2016 12:00 1,6 C 93 % 1022,6 hPa 0,0 l/m S-SW 0,00 h 134 W/m 3,5 km/h (1 Bft)
02.12.2016 13:00 2,3 C 92 % 1022,0 hPa 0,0 l/m N 0,00 h 100 W/m 0,0 km/h (0 Bft)
02.12.2016 14:00 3,1 C 90 % 1021,5 hPa 0,0 l/m N 0,00 h 83 W/m 0,0 km/h (0 Bft)
02.12.2016 15:00 2,4 C 92 % 1021,7 hPa 0,0 l/m N 0,00 h 37 W/m 0,0 km/h (0 Bft)
02.12.2016 16:00 2,2 C 91 % 1021,8 hPa 0,0 l/m N 0,33 h 16 W/m 0,0 km/h (0 Bft)
02.12.2016 17:00 1,9 C 92 % 1022,0 hPa 0,0 l/m N 0,00 h 0 W/m 0,0 km/h (0 Bft)
02.12.2016 18:00 2,0 C 93 % 1022,0 hPa 0,0 l/m N 0,00 h 0 W/m 0,0 km/h (0 Bft)
02.12.2016 19:00 2,2 C 94 % 1021,9 hPa 0,0 l/m N 0,00 h 0 W/m 0,0 km/h (0 Bft)
02.12.2016 20:00 2,3 C 94 % 1021,7 hPa 0,0 l/m N 0,00 h 0 W/m 0,0 km/h (0 Bft)
02.12.2016 21:00 2,3 C 94 % 1021,3 hPa 0,0 l/m N 0,00 h 0 W/m 0,5 km/h (0 Bft)
02.12.2016 22:00 2,2 C 95 % 1021,0 hPa 0,0 l/m S-SW 0,00 h 0 W/m 3,5 km/h (1 Bft)
02.12.2016 23:00 2,5 C 95 % 1020,9 hPa 0,0 l/m S-SW 0,00 h 0 W/m 1,2 km/h (1 Bft)
03.12.2016 00:00 2,7 C 96 % 1020,7 hPa 0,0 l/m O-NO 0,00 h 0 W/m 7,1 km/h (2 Bft)
03.12.2016 01:00 2,7 C 96 % 1020,6 hPa 0,0 l/m NO 0,00 h 0 W/m 9,8 km/h (2 Bft)
03.12.2016 02:00 2,6 C 96 % 1020,2 hPa 0,0 l/m NO 0,00 h 0 W/m 12,0 km/h (2 Bft)
03.12.2016 03:00 2,3 C 96 % 1020,1 hPa 0,0 l/m O-NO 0,00 h 0 W/m 12,9 km/h (3 Bft)
03.12.2016 04:00 2,1 C 96 % 1020,1 hPa 0,0 l/m O-NO 0,00 h 0 W/m 16,0 km/h (3 Bft)
03.12.2016 05:00 1,7 C 95 % 1020,0 hPa 0,0 l/m O-NO 0,00 h 0 W/m 14,6 km/h (3 Bft)
03.12.2016 06:00 1,2 C 94 % 1020,2 hPa 0,0 l/m NO 0,00 h 0 W/m 13,3 km/h (3 Bft)
03.12.2016 07:00 0,6 C 93 % 1020,3 hPa 0,0 l/m NO 0,00 h 5 W/m 12,4 km/h (3 Bft)
03.12.2016 08:00 0,1 C 92 % 1020,6 hPa 0,0 l/m NO 0,33 h 41 W/m 14,6 km/h (3 Bft)
03.12.2016 09:00 0,2 C 89 % 1020,9 hPa 0,0 l/m NO 1,00 h 153 W/m 16,4 km/h (3 Bft)
03.12.2016 10:00 0,7 C 85 % 1021,2 hPa 0,0 l/m O-NO 0,92 h 234 W/m 16,4 km/h (3 Bft)
03.12.2016 11:00 2,2 C 73 % 1021,0 hPa 0,0 l/m O-NO 1,00 h 304 W/m 16,2 km/h (3 Bft)
03.12.2016 12:00 3,5 C 66 % 1020,2 hPa 0,0 l/m O-NO 1,00 h 305 W/m 18,2 km/h (3 Bft)
03.12.2016 13:00 4,1 C 66 % 1020,0 hPa 0,0 l/m O-NO 1,00 h 251 W/m 17,6 km/h (3 Bft)
03.12.2016 14:00 3,9 C 67 % 1019,8 hPa 0,0 l/m O-NO 0,75 h 145 W/m 17,3 km/h (3 Bft)
03.12.2016 15:00 3,0 C 68 % 1020,4 hPa 0,0 l/m NO 0,00 h 40 W/m 18,8 km/h (3 Bft)
03.12.2016 16:00 1,9 C 68 % 1020,8 hPa 0,0 l/m NO 0,08 h 10 W/m 11,9 km/h (2 Bft)
03.12.2016 17:00 0,6 C 70 % 1021,2 hPa 0,0 l/m NO 0,00 h 0 W/m 9,9 km/h (2 Bft)
03.12.2016 18:00 -0,4 C 73 % 1021,7 hPa 0,0 l/m O-NO 0,00 h 0 W/m 8,6 km/h (2 Bft)
03.12.2016 19:00 -1,2 C 82 % 1022,3 hPa 0,0 l/m O 0,00 h 0 W/m 9,3 km/h (2 Bft)
03.12.2016 20:00 -0,9 C 89 % 1022,4 hPa 0,0 l/m O-NO 0,00 h 0 W/m 11,6 km/h (2 Bft)
03.12.2016 21:00 -0,9 C 90 % 1022,9 hPa 0,0 l/m O-NO 0,00 h 0 W/m 14,1 km/h (3 Bft)
03.12.2016 22:00 -1,2 C 90 % 1023,1 hPa 0,0 l/m NO 0,00 h 0 W/m 14,0 km/h (3 Bft)
03.12.2016 23:00 -1,3 C 90 % 1023,5 hPa 0,0 l/m NO 0,00 h 0 W/m 13,3 km/h (3 Bft)
04.12.2016 00:00 -1,3 C 91 % 1023,7 hPa 0,0 l/m O-NO 0,00 h 0 W/m 9,4 km/h (2 Bft)
04.12.2016 01:00 -1,3 C 92 % 1023,7 hPa 0,0 l/m O-NO 0,00 h 0 W/m 9,4 km/h (2 Bft)
04.12.2016 02:00 -1,3 C 92 % 1024,0 hPa 0,0 l/m O-NO 0,00 h 0 W/m 6,5 km/h (2 Bft)
04.12.2016 03:00 -1,3 C 93 % 1024,0 hPa 0,0 l/m O-NO 0,00 h 0 W/m 5,3 km/h (1 Bft)
04.12.2016 04:00 -1,4 C 93 % 1024,2 hPa 0,0 l/m O-NO 0,00 h 0 W/m 2,8 km/h (1 Bft)
04.12.2016 05:00 -1,3 C 94 % 1024,4 hPa 0,0 l/m O-NO 0,00 h 0 W/m 4,7 km/h (1 Bft)
04.12.2016 06:00 -1,2 C 94 % 1024,7 hPa 0,0 l/m O-NO 0,00 h 0 W/m 2,3 km/h (1 Bft)
04.12.2016 07:00 -1,2 C 94 % 1024,9 hPa 0,0 l/m N 0,00 h 0 W/m 0,0 km/h (0 Bft)
04.12.2016 08:00 -1,0 C 94 % 1025,5 hPa 0,0 l/m O-NO 0,00 h 12 W/m 1,9 km/h (1 Bft)
04.12.2016 09:00 -0,8 C 94 % 1025,9 hPa 0,0 l/m O-NO 0,00 h 32 W/m 2,0 km/h (1 Bft)
04.12.2016 10:00 -0,6 C 93 % 1026,2 hPa 0,0 l/m O-NO 0,00 h 56 W/m 5,7 km/h (1 Bft)
04.12.2016 11:00 -0,4 C 92 % 1026,0 hPa 0,0 l/m O-NO 0,00 h 63 W/m 5,2 km/h (1 Bft)
04.12.2016 12:00 -0,3 C 92 % 1025,7 hPa 0,0 l/m O-NO 0,00 h 80 W/m 2,3 km/h (1 Bft)
04.12.2016 13:00 -0,2 C 92 % 1025,6 hPa 0,0 l/m N 0,00 h 74 W/m 2,5 km/h (1 Bft)
04.12.2016 14:00 0,0 C 91 % 1025,5 hPa 0,0 l/m O-NO 0,00 h 67 W/m 5,3 km/h (1 Bft)
04.12.2016 15:00 0,1 C 91 % 1025,6 hPa 0,0 l/m O-NO 0,00 h 27 W/m 6,1 km/h (2 Bft)
04.12.2016 16:00 -0,2 C 91 % 1025,9 hPa 0,0 l/m O-NO 0,00 h 8 W/m 6,7 km/h (2 Bft)
04.12.2016 17:00 -0,4 C 92 % 1026,4 hPa 0,0 l/m O-NO 0,00 h 0 W/m 4,3 km/h (1 Bft)
04.12.2016 18:00 -0,6 C 92 % 1026,5 hPa 0,0 l/m O-NO 0,00 h 0 W/m 6,1 km/h (2 Bft)
04.12.2016 19:00 -0,7 C 93 % 1026,6 hPa 0,0 l/m O-NO 0,00 h 0 W/m 5,1 km/h (1 Bft)
04.12.2016 20:00 -0,7 C 93 % 1026,6 hPa 0,0 l/m O-NO 0,00 h 0 W/m 4,9 km/h (1 Bft)
04.12.2016 21:00 -0,8 C 94 % 1026,9 hPa 0,0 l/m O-NO 0,00 h 0 W/m 5,7 km/h (1 Bft)
04.12.2016 22:00 -1,1 C 94 % 1026,9 hPa 0,0 l/m O-NO 0,00 h 0 W/m 2,1 km/h (1 Bft)
04.12.2016 23:00 -1,3 C 95 % 1027,2 hPa 0,0 l/m O-NO 0,00 h 0 W/m 3,1 km/h (1 Bft)
Min-Datum _ 30.11.16 29.11.16 28.11.16 - - - - 29.11.16
_ Min-Zeit 07:05 13:15 00:00 - - - - 17:45
Minimum _ -7,6 C 60 % 1017,5 hPa - - - - 0,0 km/h (0 Bft)
Max-Datum _ 01.12.16 30.11.16 30.11.16 01.12.16 - 28.11.16 01.12.16 28.11.16
_ Max-Zeit 14:35 06:35 10:40 16:05 - 08:00 12:25 12:50
Maximum _ 5,3 C 100 % 1035,7 hPa 0,2 l/m - 0,08 h 378 W/m 37,0 km/h
O-NO (5 Bft)
Durchschnitt _ -0,6 C 87 % 1026,3 hPa #0,2 l/m O-NO #26:40 h 124 W/m 8,8 km/h (2 Bft)